DW9417 Weather Reports


Display with metric or nautical units.
time (UTC)temp
F
wind
direction
speed
MPH
gust
MPH
rain 1hr
in
rain 24hr
in
rain mn
in
humidity
%
barometer
mb
20260507163054 56 78 3.0 8.0 0.00 0.00 0.00 66 1030.3
20260507161555 56 81 3.0 11.0 0.00 0.00 0.00 65 1030.3
20260507160047 57 88 5.0 9.0 0.00 0.00 0.00 65 1030.2
20260507154546 57 79 6.0 10.0 0.00 0.00 0.00 65 1030.2
20260507153046 57 97 6.0 9.0 0.00 0.00 0.00 64 1030.1
20260507151547 57 95 7.0 10.0 0.00 0.00 0.00 64 1030.2
20260507150047 57 82 7.0 11.0 0.00 0.00 0.00 63 1030.1
20260507144544 58 89 5.0 11.0 0.00 0.00 0.00 62 1030.2
20260507143045 58 99 7.0 12.0 0.00 0.00 0.00 61 1030.2
20260507141543 59 92 6.0 20.0 0.00 0.00 0.00 59 1030.2
20260507140045 59 106 7.0 11.0 0.00 0.00 0.00 59 1030.1
20260507134541 59 97 6.0 14.0 0.00 0.00 0.00 59 1030.0
20260507133046 59 105 8.0 13.0 0.00 0.00 0.00 58 1029.8
20260507131541 60 109 8.0 12.0 0.00 0.00 0.00 57 1029.7
20260507130042 59 106 6.0 9.0 0.00 0.00 0.00 59 1029.6
20260507124540 58 122 5.0 9.0 0.00 0.00 0.00 59 1029.5
20260507123037 58 115 4.0 7.0 0.00 0.00 0.00 58 1029.4
20260507121536 58 111 5.0 7.0 0.00 0.00 0.00 58 1029.4
20260507120036 58 113 4.0 7.0 0.00 0.00 0.00 58 1029.3
20260507114554 58 113 4.0 8.0 0.00 0.00 0.00 57 1029.3
20260507113059 59 111 4.0 8.0 0.00 0.00 0.00 56 1029.2
20260507111540 59 117 6.0 10.0 0.00 0.00 0.00 56 1029.1
20260507110034 58 109 5.0 7.0 0.00 0.00 0.00 56 1029.2
20260507104540 58 117 4.0 6.0 0.00 0.00 0.00 56 1029.1
20260507103032 59 117 3.0 6.0 0.00 0.00 0.00 54 1029.1
20260507101532 60 117 3.0 4.0 0.00 0.00 0.00 53 1028.9
20260507100031 62 117 3.0 4.0 0.00 0.00 0.00 50 1028.8
20260507094533 64 117 3.0 8.0 0.00 0.00 0.00 48 1028.7
20260507093035 65 119 6.0 10.0 0.00 0.00 0.00 46 1028.6
20260507091535 66 98 8.0 12.0 0.00 0.00 0.00 45 1028.4
20260507090029 67 99 7.0 13.0 0.00 0.00 0.00 44 1028.4
20260507084539 68 86 8.0 11.0 0.00 0.00 0.00 42 1028.3
20260507083027 69 123 9.0 14.0 0.00 0.00 0.00 41 1028.3
20260507081534 69 123 6.0 14.0 0.00 0.00 0.00 42 1028.3
20260507080024 69 98 8.0 13.0 0.00 0.00 0.00 42 1028.4
20260507074523 70 107 9.0 15.0 0.00 0.00 0.00 41 1028.4
20260507073021 70 94 8.0 15.0 0.00 0.00 0.00 40 1028.4
20260507071518 70 113 10.0 15.0 0.00 0.00 0.00 42 1028.5
20260507070018 70 117 4.0 13.0 0.00 0.00 0.00 42 1028.5
20260507064619 70 113 8.0 13.0 0.00 0.00 0.00 43 1028.5
20260507063020 69 95 8.0 13.0 0.00 0.00 0.00 42 1028.7
20260507061513 69 107 7.0 14.0 0.00 0.00 0.00 43 1028.8
20260507060011 69 98 7.0 13.0 0.00 0.00 0.00 43 1029.0
20260507054511 69 112 6.0 12.0 0.00 0.00 0.00 44 1029.2
20260507053006 69 105 6.0 12.0 0.00 0.00 0.00 44 1029.4
20260507051504 68 93 5.0 15.0 0.00 0.00 0.00 45 1029.5
20260507050002 68 89 6.0 15.0 0.00 0.00 0.00 46 1029.6
20260507044613 68 106 7.0 13.0 0.00 0.00 0.00 46 1029.9
20260507043109 67 78 3.0 12.0 0.00 0.00 0.00 48 1030.2
20260507041556 67 56 3.0 12.0 0.00 0.00 0.00 47 1030.6
20260507040050 67 58 6.0 12.0 0.00 0.00 0.00 48 1031.0
20260507034552 66 87 6.0 13.0 0.00 0.00 0.00 49 1031.2
20260507033047 66 49 4.0 12.0 0.00 0.00 0.00 49 1031.5
20260507031547 66 69 5.0 14.0 0.00 0.00 0.00 51 1031.7
20260507030043 65 15 6.0 12.0 0.00 0.00 0.00 52 1031.8
20260507024542 64 42 6.0 14.0 0.00 0.00 0.00 54 1032.0
20260507023136 63 98 6.0 14.0 0.00 0.00 0.00 57 1032.2
20260507021537 62 93 6.0 15.0 0.00 0.00 0.00 60 1032.4
20260507020045 61 106 8.0 14.0 0.00 0.00 0.00 61 1032.6
20260507014527 60 88 8.0 13.0 0.00 0.00 0.00 62 1032.7
20260507013025 59 37 8.0 14.0 0.00 0.00 0.00 65 1032.8
20260507011533 58 40 7.0 13.0 0.00 0.00 0.00 67 1032.8
20260507010017 57 86 9.0 13.0 0.00 0.00 0.00 69 1033.0
20260507004512 56 80 7.0 12.0 0.00 0.00 0.00 73 1033.0
20260507003008 54 80 6.0 11.0 0.00 0.00 0.00 75 1033.0
20260507001514 53 90 5.0 9.0 0.00 0.00 0.00 78 1033.0
20260507000002 52 90 5.0 9.0 0.00 0.00 0.00 80 1032.7
20260506234600 51 76 3.0 8.0 0.00 0.00 0.00 81 1032.5
20260506233058 50 119 3.0 6.0 0.00 0.00 0.00 83 1032.4
20260506231604 49 90 2.0 4.0 0.00 0.00 0.00 84 1032.3
20260506224550 45 100 1.0 4.0 0.00 0.00 0.00 90 1032.0
20260506223047 44 101 0.0 0.0 0.00 0.00 0.00 84 1031.9
20260506221602 44 101 0.0 0.0 0.00 0.00 0.00 85 1031.9
20260506220044 44 101 0.0 0.0 0.00 0.00 0.00 84 1031.7
20260506214541 45 101 0.0 0.0 0.00 0.00 0.00 82 1031.5
20260506213040 46 101 0.0 0.0 0.00 0.00 0.00 83 1031.3
20260506211538 46 101 0.0 0.0 0.00 0.00 0.00 82 1031.2
20260506210050 46 101 0.0 0.0 0.00 0.00 0.00 82 1031.2
20260506204540 46 101 0.0 0.0 0.00 0.00 0.00 83 1031.2
20260506203037 45 101 0.0 0.0 0.00 0.00 0.00 84 1031.1
20260506201534 45 101 0.0 0.0 0.00 0.00 0.00 84 1031.1
20260506200034 45 101 0.0 0.0 0.00 0.00 0.00 85 1031.0
20260506194533 44 101 0.0 0.0 0.00 0.00 0.00 84 1030.9
20260506193037 44 101 0.0 0.0 0.00 0.00 0.00 83 1030.8
20260506191529 44 101 0.0 1.0 0.00 0.00 0.00 83 1030.9
20260506190030 44 102 0.0 0.0 0.00 0.00 0.00 82 1030.9
20260506184535 45 101 0.0 0.0 0.00 0.00 0.00 80 1031.0
20260506183021 48 88 0.0 0.0 0.00 0.00 0.00 76 1031.0
20260506181533 49 88 2.0 6.0 0.00 0.00 0.00 80 1031.0
20260506180018 46 71 0.0 0.0 0.00 0.00 0.00 80 1031.0
20260506174517 47 87 0.0 0.0 0.00 0.00 0.00 80 1030.9
20260506173014 48 82 0.0 0.0 0.00 0.00 0.00 78 1030.9
20260506171510 48 65 0.0 0.0 0.00 0.00 0.00 78 1030.8
20260506170012 49 64 0.0 1.0 0.00 0.00 0.00 77 1030.8
20260506164524 49 61 0.0 2.0 0.00 0.00 0.00 75 1030.9